#timestamp,LO_Frequency,Hit,StdDev 
1621270815.3,286047004.2,N
1621270835.2,286047007.5,N
1621270855.9,286047006.9,N
1621270875.7,286047003.3,N
1621270895.6,286047009.8,Y
1621270915.4,286047005.7,P
1621270935.2,286047008.2,P
1621270955.1,286047009.5,P
1621270956.0,286047009.5,Y
1621270975.8,286047002.9,P
1621270995.7,286047005.0,N
1621271015.5,286047003.9,N
1621271035.3,286047002.8,N
1621271055.2,286046999.7,N
1621271075.0,286047002.5,N
1621271075.9,286047002.5,N
1621271095.8,286047000.0,N
1621271115.6,286047000.2,N
1621271135.4,286047002.7,N
1621271155.3,286047003.6,N
1621271175.1,286047005.0,N
1621271195.8,286047005.0,N
1621271215.7,286047005.5,N
1621271235.5,286047001.3,N
1621271255.4,286047002.4,N
1621271275.2,286046999.8,N
1621271295.0,286047003.2,N
1621271295.9,286047003.2,N
1621271315.8,286047002.1,N
1621271335.6,286047000.9,N
1621271355.4,286047000.3,N
1621271375.3,286046998.4,N
1621271395.1,286047001.1,N
1621271415.9,286047002.4,N
1621271435.7,286046998.1,N
1621271455.5,286047001.0,N
1621271475.4,286047001.7,N
1621271495.2,286047002.1,N
1621271515.0,286046998.1,N
1621271516.0,286046998.1,N
1621271535.8,286047000.8,N
1621271555.6,286047000.6,N
1621271575.5,286046998.5,N
1621271595.3,286046998.1,N
1621271615.1,286046998.5,N
1621271635.9,286047000.7,N
1621271655.7,286046998.5,N
1621271675.6,286046998.8,N
1621271695.4,286046999.6,N
1621271715.2,286046997.0,N
1621271735.1,286046999.3,N
1621271736.0,286046999.3,N
1621271755.8,286047001.2,N
1621271775.6,286046998.1,N
1621271795.5,286046998.8,N
1621271815.3,286046998.6,N
1621271835.2,286046999.1,N
1621271855.9,286046997.1,N
1621271875.7,286046997.0,N
1621271895.6,286046996.6,N
1621271915.4,286046999.5,N
1621271935.3,286046999.3,N
1621271955.1,286047000.6,N
1621271956.0,286047000.6,N
1621271975.8,286047000.8,N
1621271995.7,286046998.7,N
1621272015.5,286046999.6,N
1621272035.3,286046997.3,N
1621272055.2,286046997.3,N
1621272075.0,286046999.2,N
1621272075.9,286046999.2,N
1621272095.8,286046997.4,N
1621272115.6,286047000.3,N
1621272135.4,286047002.2,N
1621272155.3,286047004.4,Y
1621272175.1,286047001.8,P
1621272195.9,286047001.5,N
1621272215.7,286047000.1,N
1621272235.5,286047001.0,N
1621272255.4,286047000.7,N
1621272275.2,286046998.7,N
1621272295.1,286046996.5,Y
1621272296.0,286046996.5,P
1621272315.8,286046997.3,N
1621272335.6,286046996.8,N
1621272355.5,286046998.4,N
1621272375.3,286047000.3,N
1621272395.1,286047001.8,N
1621272415.9,286047002.5,N
1621272435.7,286047000.6,N
1621272455.6,286047000.5,N
1621272475.4,286047001.2,N
1621272495.2,286046998.1,N
1621272515.1,286046998.8,N
1621272516.0,286046998.8,N
1621272535.8,286046998.2,N
1621272555.7,286046998.5,N
1621272575.5,286046998.1,N
1621272595.3,286046998.4,N
1621272615.2,286046999.9,N
1621272635.0,286047002.8,N
1621272635.9,286047002.8,N
1621272655.7,286046999.9,N
1621272675.6,286047002.6,N
1621272695.4,286047002.6,N
1621272715.3,286047002.8,N
1621272735.1,286047002.9,N
1621272755.8,286047005.9,N
1621272775.7,286047004.9,N
1621272795.5,286047005.1,N
1621272815.4,286047007.1,N
1621272835.2,286047007.0,N
1621272855.0,286047008.4,N
1621272855.9,286047008.4,N
1621272875.8,286047008.8,N
1621272895.6,286047005.8,N
1621272915.4,286047003.9,N
1621272935.3,286047003.7,N
1621272955.1,286047001.8,N
1621272975.9,286046999.8,N
1621272995.7,286047000.3,N
1621273015.5,286047000.6,N
1621273035.4,286047001.0,N
1621273055.2,286047001.5,N
1621273075.0,286047003.7,N
1621273075.9,286047003.7,N
1621273095.8,286047003.4,N
1621273115.6,286047003.6,N
1621273135.5,286047003.0,N
1621273155.3,286047005.8,N
1621273175.1,286047003.0,N
1621273195.9,286047003.9,N
1621273215.7,286047003.0,N
1621273235.5,286047005.9,N
1621273255.4,286047003.2,N
1621273275.2,286047003.7,N
1621273295.1,286047001.9,N
1621273296.0,286047001.9,N
1621273315.8,286047004.4,N
1621273335.6,286047003.5,N
1621273355.5,286047004.3,N
1621273375.3,286047001.8,N
1621273395.2,286047002.6,N
1621273415.9,286047000.1,N
1621273435.7,286046999.9,N
1621273455.6,286046999.7,N
1621273475.4,286047004.1,N
1621273495.2,286047007.5,Y
1621273515.1,286047001.4,P
1621273516.0,286047001.4,N
1621273535.8,286047004.1,P
1621273555.7,286047004.0,Y
1621273575.5,286047000.9,P
1621273595.3,286047000.7,N
1621273615.2,286047000.8,N
1621273635.0,286046998.7,N
1621273635.9,286046998.7,N
1621273655.8,286047000.7,N
1621273675.6,286046998.8,N
1621273695.4,286046999.6,N
1621273715.3,286046996.7,N
1621273735.1,286047001.2,N
1621273755.8,286046999.9,N
1621273775.7,286047000.3,N
1621273795.5,286047001.2,N
1621273815.4,286046998.4,N
1621273835.2,286046996.9,N
1621273855.0,286047001.2,N
1621273855.9,286047001.2,N
1621273875.8,286047001.0,N
1621273895.6,286047002.5,N
1621273915.5,286047004.1,N
1621273935.3,286047007.1,Y
1621273955.1,286047007.0,P
1621273975.9,286047008.9,N
1621273995.7,286047009.0,N
1621274015.5,286047010.2,N
1621274035.4,286047008.4,N
1621274055.2,286047009.1,N
1621274075.1,286047007.0,N
1621274076.0,286047007.0,N
1621274095.8,286047007.0,N
1621274115.6,286047008.7,Y
1621274135.5,286047003.5,P
1621274155.3,286047001.4,N
1621274175.1,286047002.6,N
1621274195.9,286047002.6,N
1621274215.7,286047001.5,N
1621274235.6,286047001.5,N
1621274255.4,286047002.1,N
1621274275.2,286047002.1,N
1621274295.1,286047003.6,N
1621274296.0,286047003.6,N
1621274315.8,286047005.6,Y
1621274335.7,286047002.5,P
1621274355.5,286047002.5,P
1621274375.3,286047002.8,P
1621274395.2,286047002.7,Y
